Change the Weather History Date:

Wednesday, October 24, 2012

  Actual Average Record
Temperature  
Mean Temperature 66 °F -  
Max Temperature 73 °F 66 °F 77 °F (2004)
Min Temperature 58 °F 53 °F 50 °F (1996)
Growing Degree Days 16 (Base 50)    
Moisture  
Dew Point 58 °F    
Average Humidity 73    
Maximum Humidity 94    
Minimum Humidity 46    
Precipitation  
Precipitation 0.12 in 0.12 in - ()
Sea Level Pressure  
Sea Level Pressure 29.92 in    
Wind  
Wind Speed 3 mph ()    
Max Wind Speed 13 mph    
Max Gust Speed -    
Visibility 6.2 miles    
Events Rain    
Averages and records for this station are not official NWS values.
T = Trace of Precipitation, MM = Missing Value Source: Averaged Metar Reports

Daily Weather History Graph

Daily Weather History Graph

Search for Another Location

Airport or City:

Trip Planner

Search our weather history database for the weather conditions in past years. The results will help you decide how hot, cold, wet, or windy it might be!

Date:

Astronomy

Oct. 24, 2012 Rise Set
Actual Time 7:29 AM EEST 6:22 PM EEST
Civil Twilight 7:02 AM EEST 6:49 PM EEST
Nautical Twilight 6:32 AM EEST 7:20 PM EEST
Astronomical Twilight 6:01 AM EEST 7:50 PM EEST
Moon 3:23 PM EEST (10/24) 2:10 AM EEST (10/24)
Length of Visible Light 11h 46m
Length of Day
10h 53m
Waxing Gibbous, 73% of the Moon is Illuminated
Oct 24
Waxing Gibbous
Oct 29
Full
Nov 7
Last Quarter
Nov 14
New
Nov 20
First Quarter

Hourly Weather History & Observations

Time (EEST) Temp. Dew Point Humidity Pressure Visibility Wind Dir Wind Speed Gust Speed Precip Events Conditions
4:50 AM 59.0 °F 51.8 °F 77% 29.92 in 6.2 mi Calm Calm - N/A   Scattered Clouds
5:20 AM 59.0 °F 55.4 °F 88% 29.92 in 6.2 mi Calm Calm - N/A   Scattered Clouds
5:50 AM 60.8 °F 57.2 °F 88% 29.92 in 6.2 mi Calm Calm - N/A   Scattered Clouds
6:20 AM 60.8 °F 57.2 °F 88% 29.92 in 6.2 mi Calm Calm - N/A   Scattered Clouds
6:50 AM 60.8 °F 57.2 °F 88% 29.92 in 6.2 mi Calm Calm - N/A   Scattered Clouds
7:20 AM 60.8 °F 57.2 °F 88% 29.92 in 6.2 mi Calm Calm - N/A   Scattered Clouds
7:50 AM 60.8 °F 57.2 °F 88% 29.92 in 6.2 mi Calm Calm - N/A   Scattered Clouds
8:20 AM 60.8 °F 57.2 °F 88% 29.92 in 6.2 mi Calm Calm - N/A   Scattered Clouds
8:50 AM 62.6 °F 57.2 °F 82% 29.92 in 6.2 mi Calm Calm - N/A   Scattered Clouds
9:00 AM 62 °F 58 °F 81% 29.94 in 6 mi Calm Calm - -   Scattered Clouds
9:20 AM 62.6 °F 57.2 °F 82% 29.92 in 6.2 mi Calm Calm - N/A   Scattered Clouds
9:50 AM 64.4 °F 59.0 °F 83% 29.92 in 6.2 mi Calm Calm - N/A   Scattered Clouds
10:50 AM 66.2 °F 59.0 °F 78% 29.92 in 6.2 mi Calm Calm - N/A   Scattered Clouds
11:20 AM 68.0 °F 59.0 °F 73% 29.92 in 6.2 mi Calm Calm - N/A   Scattered Clouds
11:50 AM 69.8 °F 57.2 °F 64% 29.95 in 6.2 mi ESE 11.5 mph - N/A   Partly Cloudy
12:20 PM 71.6 °F 57.2 °F 60% 29.95 in 6.2 mi ESE 11.5 mph - N/A   Partly Cloudy
12:50 PM 71.6 °F 55.4 °F 57% 29.95 in 6.2 mi ESE 12.7 mph - N/A   Partly Cloudy
1:20 PM 71.6 °F 55.4 °F 57% 29.95 in 6.2 mi ESE 9.2 mph - N/A   Scattered Clouds
1:50 PM 71.6 °F 55.4 °F 57% 29.95 in 6.2 mi ESE 9.2 mph - N/A   Scattered Clouds
2:20 PM 71.6 °F 55.4 °F 57% 29.95 in 6.2 mi SE 9.2 mph - N/A   Scattered Clouds
2:50 PM 73.4 °F 57.2 °F 57% 29.89 in 6.2 mi South 9.2 mph - N/A   Scattered Clouds
3:00 PM 73 °F 57 °F 46% 29.91 in 6 mi South 9.2 mph - -   Partly Cloudy
3:20 PM 73.4 °F 57.2 °F 57% 29.89 in 6.2 mi South 9.2 mph - N/A   Scattered Clouds
3:50 PM 73.4 °F 57.2 °F 57% 29.89 in 6.2 mi SSE 9.2 mph - N/A   Scattered Clouds
4:20 PM 73.4 °F 57.2 °F 57% 29.89 in 6.2 mi South 9.2 mph - N/A   Scattered Clouds
4:50 PM 71.6 °F 57.2 °F 60% 29.89 in 6.2 mi ESE 4.6 mph - N/A   Scattered Clouds
5:20 PM 69.8 °F 57.2 °F 64% 29.89 in 6.2 mi East 5.8 mph - N/A   Mostly Cloudy
5:50 PM 68.0 °F 57.2 °F 68% 29.89 in 6.2 mi East 5.8 mph - N/A   Mostly Cloudy
6:20 PM 68.0 °F 57.2 °F 68% 29.89 in 6.2 mi East 5.8 mph - N/A   Mostly Cloudy
6:50 PM 66.2 °F 60.8 °F 83% 29.89 in 6.2 mi ESE 5.8 mph - N/A Rain Rain
7:20 PM 66.2 °F 60.8 °F 83% 29.89 in 6.2 mi ENE 9.2 mph - N/A Rain Rain
7:50 PM 66.2 °F 59.0 °F 78% 29.89 in 6.2 mi Calm Calm - N/A Rain Light Rain
8:20 PM 64.4 °F 62.6 °F 94% 29.89 in 6.2 mi Calm Calm - N/A   Mostly Cloudy
8:50 PM 64.4 °F 60.8 °F 88% 29.92 in 6.2 mi Calm Calm - N/A   Mostly Cloudy
9:00 PM 64 °F 61 °F 87% 29.92 in 6 mi Calm Calm - - Rain Light Rain